Погода в Уктуре

Россия / Хабаровский край     50°20′23″N   138°29′04″E
темп.,
°C
ветер,
м/с
пор.,
м/с
влажн.,
%
обл.,
%
осадки,
мм/ч
давл.,
гПа
погр.,
м
17 мая, вт
вт1701:000ююв22885 0.0 100524
04:000юв1185100 0.0 100618
07:00+4ююв126792 0.0 1006203
10:00+4ююз1590100 0.3 1007472
13:00+12зюз573895 0.2 10052246
16:00+12зюз51039100 0.2 10051986
19:00+10юз1154100 0.0 100623
22:00+5вюв1170100 0.0 100610
18 мая, ср
ср1801:00+5ююв227285 0.0 100533
04:00+6ююв2489100 1.3 1005130
07:00+6юз1298100 1.3 100545
10:00+7зсз1294100 2.8 1006173
13:00+8сз2584100 2.4 1007793
16:00+9сз367018 2.7 1008967
19:00+8зсз356627 0.0 1009958
22:00+3юз118725 0.0 101210
19 мая, чт
чт1901:00+3ю2291100 0.0 101229
04:00+2ююв2294100 0.0 101128
07:00+5ю2477100 0.1 1011204
10:00+5ююв3794100 1.1 1009658
13:00+6ююв2594100 0.4 1008315
16:00+9з0386100 0.5 1006419
19:00+6св2299100 2.6 100660
22:00+6с2398100 6.1 1007128
20 мая, пт
пт2001:00+5ссв1198100 3.7 100616
04:00+4с009867 3.8 100611
07:00+5с119793 0.0 1007163
10:00+8сз118378 0.1 1007657
13:00+10сз1170100 0.1 10061028
16:00+14с0153100 0.1 10041265
19:00+11ссз2267100 0.0 100494
22:00+7зюз1185100 0.0 100610
21 мая, сб
сб2101:00+8в1184100 0.0 100517
04:00+7в2391100 0.1 100487
07:00+7вюв2593100 1.0 1003427
10:00+6вюв2494100 7.5 1004464
13:00+6вюв1390100 0.9 1004435
16:00+5св1296100 1.7 1005197
19:00+4с2397100 0.3 1007167
22:00+4с2398100 0.4 1008187